Location: Nye Canyon
(38.5702°N, 119.2093°W)
Time: 03:29:38
(UTC+00:00)

Daily predictions for brighter satellites

Satellite Brightness Start Highest point End
(mag) Time Altitude Azimuth Time Altitude Azimuth Time Altitude Azimuth
Iridium 4 Rocket 3.5 02:12:52 10° S 02:17:40 65° E 02:22:59 10° N
Meteor 2-11 Rocket 4.5 02:14:02 10° S 02:20:07 70° E 02:26:15 10° NNE
COSMO-SKYMED 1 3.3 02:18:17 10° N 02:22:35 61° WNW 02:26:50 10° SSW
CSL-04 Rocket 4.2 02:20:27 10° SE 02:25:27 40° ENE 02:30:33 10° N
HJ-1C 4.4 02:28:36 10° SE 02:31:24 26° ENE 02:34:13 10° NNE
Cosmos 1603 3.7 02:27:37 10° NNW 02:33:18 84° ENE 02:38:54 10° SSE
Cosmos 2233 Rocket 4.3 02:27:39 10° SSW 02:33:53 75° W 02:40:06 10° N
SJ 16-02 4.1 02:32:56 10° WSW 02:36:22 22° WNW 02:39:49 10° NNW
Sich 1 Rocket 3.7 02:33:50 10° S 02:38:11 55° E 02:42:38 10° NNE
Cosmos 1975 3.5 02:34:33 10° SSW 02:38:34 61° W 02:42:38 10° N
H-2A R/B 2.4 02:34:40 10° SE 02:39:18 42° ENE 02:44:04 10° N
Okean 2 3.5 02:35:50 10° N 02:40:01 82° W 02:44:09 10° S
Meteor 1-21 4.2 02:34:49 10° N 02:40:26 73° E 02:46:00 10° SSE
DMSP B5D1-3 4.5 02:35:30 10° NNE 02:40:36 69° ESE 02:45:40 10° S
NOSS 2-2 (E) 4.1 02:38:45 10° SW 02:42:08 48° NW 02:45:46 10° NNE
Cosmos 1842 3.4 02:40:07 10° N 02:43:59 78° W 02:47:51 10° S
Meteor 1-12 Rocket 4.5 02:40:50 10° SSE 02:46:31 50° E 02:52:08 10° NNE
ATLAS 2AS CENTAUR R/B 4.0 02:42:35 10° SSE 02:48:09 21° ESE 02:53:47 10° ENE
BREEZE-M DEB (TANK) 3.7 02:46:01 10° NW 02:48:54 35° NE 02:54:11 15° E
CZ-4 R/B 2.0 02:44:54 10° S 02:49:05 65° W 02:53:17 10° NNW
NOSS 2-2 (D) 4.0 02:47:42 10° SW 02:51:07 50° NW 02:54:44 10° NNE
Cosmos 2034 Rocket 4.5 02:45:44 10° SSE 02:51:32 39° E 02:57:20 10° NNE
USA 116 3.9 02:50:12 10° N 02:53:47 72° WNW 02:57:50 10° SSW
Cosmos 1707 3.0 02:50:19 10° N 02:54:00 44° E 02:57:40 10° SSE
Okean 2 Rocket 3.2 02:50:08 10° S 02:54:30 52° E 02:58:52 10° NNE
CENTAUR R/B 4.2 02:49:11 10° NNW 02:56:01 29° NE 03:01:27 16° E
Cosmos 1300 Rocket 3.6 02:52:35 10° S 02:56:51 53° E 03:01:10 10° NNE
Ariane Rocket 3.8 02:56:56 16° ESE 03:00:00 30° ENE 03:04:22 10° N
Cosmos 1437 4.2 03:02:02 10° NNW 03:04:49 36° W 03:07:35 10° SSW
Okean-O 4.2 03:00:59 10° SSW 03:05:04 37° W 03:09:13 10° NNW
DELTA 2 R/B (1) 4.1 03:00:37 10° W 03:06:00 53° SSW 03:09:54 18° SE
YAOGAN 1 3.5 03:01:53 10° S 03:06:05 50° W 03:10:19 10° NNW
SJ-6B 3.9 03:08:51 24° ENE 03:08:54 24° ENE 03:11:57 10° NNE
ARGOS 3.1 03:04:12 10° SSE 03:09:28 63° ENE 03:14:47 10° N
ATLAS 5 CENTAUR R/B 3.1 03:06:36 10° NW 03:10:09 77° SW 03:22:38 10° SSE
In-Cosmos 22 4.2 03:05:26 10° N 03:10:39 55° ENE 03:15:55 10° SSE
SL-08 RB Rocket 4.0 03:09:03 18° SE 03:12:08 45° ENE 03:16:29 10° N
USA 238 DEB 4.4 03:05:44 10° NNW 03:12:35 43° NE 03:16:45 23° ESE
USA 238 4.4 03:05:51 10° NNW 03:12:40 42° NE 03:16:50 23° ESE
USA 186 2.3 03:14:50 35° ENE 03:14:50 35° ENE 03:17:41 10° N
CZ-2C R/B 3.6 03:11:52 10° S 03:17:00 62° W 03:22:27 10° NNW
CZ-2C R/B 2.9 03:11:50 10° NNE 03:17:13 48° E 03:22:37 10° S
Cosmos 2298 Rocket 4.0 03:12:46 10° SSW 03:18:05 86° ESE 03:23:27 10° NNE
Cosmos 1536 Rocket 3.8 03:16:35 10° N 03:20:54 49° E 03:22:45 30° SE
MOS 1 Rocket 3.4 03:18:07 10° N 03:22:29 67° WNW 03:26:43 10° SSW
Cosmos 1025 Rocket 2.9 03:21:09 10° N 03:25:33 77° E 03:28:46 18° SSE
ISS -1.3 03:23:36 10° WNW 03:26:12 20° NNW 03:28:44 10° NNE
Cosmos 2285 Rocket 4.0 03:26:42 10° S 03:32:51 59° ESE 03:39:04 10° NNE
Cosmos 1844 3.6 03:27:48 10° SSW 03:33:30 74° ESE 03:39:09 10° NNE
Cosmos 2151 Rocket 3.7 03:31:50 10° SSW 03:36:15 74° W 03:40:45 10° N
Cosmos 1844 Rocket 2.7 03:32:17 10° SSW 03:37:50 81° WNW 03:43:27 10° NNE
Cosmos 1464 Rocket 4.4 03:32:08 10° SSW 03:38:09 62° W 03:44:17 10° N
Cosmos 1867 3.9 03:33:36 10° NW 03:38:59 63° WSW 03:42:28 22° SSE
NOSS 3-2 (A) 4.1 03:32:00 10° NNW 03:39:39 67° NE 03:43:55 32° SE
CZ-2C R/B 1.8 03:38:25 10° W 03:41:25 38° SSW 03:41:25 38° SSW
Cosmos 1092 Rocket 4.0 03:42:17 10° N 03:48:19 54° E 03:49:45 45° ESE
MetOp-A 4.0 03:49:02 46° SE 03:50:35 71° ENE 03:55:56 10° N
Cosmos 1125 Rocket 3.6 03:45:49 10° SSW 03:51:07 79° WNW 03:56:28 10° NNE
Cosmos 2026 Rocket 4.3 03:46:46 10° N 03:52:50 45° ENE 03:53:10 44° E
MOS 1 4.2 03:53:26 37° SSE 03:55:50 86° ENE 04:01:34 10° NNW
USA 234 3.1 03:52:10 16° NE 03:57:35 72° SE 04:04:07 10° SW
DMSP B5D2-2 4.1 03:53:48 10° N 03:59:06 81° WNW 04:04:23 10° SSW
Cosmos 1674 3.6 04:00:57 10° N 04:03:41 44° NNW 04:03:41 44° NNW
Cosmos 1833 Rocket 4.4 04:00:48 10° N 04:03:34 18° NE 04:03:34 18° NE
Resurs 01 Rocket 3.3 04:14:23 24° NNE 04:14:23 24° NNE 04:16:19 10° N
NOSS 3-2 (C) 4.0 04:07:43 10° NNW 04:15:26 71° NE 04:17:16 56° ESE
NOSS 3-4 (A) 3.2 04:09:52 10° SSW 04:15:43 85° ESE 04:21:55 10° NE
NOSS 3-4 (C) 3.2 04:09:59 10° SSW 04:15:50 84° ESE 04:22:01 10° NE
H-2A R/B 4.4 04:15:21 10° SW 04:18:54 20° W 04:22:32 10° NW
OBJECT-B 4.0 04:29:43 11° NNW 04:29:43 11° NNW 04:29:53 10° NNW
Okean 1 Rocket 4.3 04:30:29 40° W 04:30:34 40° W 04:34:50 10° N
ATLAS 2AS CENTAUR R/B 3.0 04:30:25 10° SW 04:38:20 81° WNW 04:46:19 10° NNE
Milstar 3 Cent rocket 4.2 04:41:19 10° WSW 04:43:05 17° SW 04:43:05 17° SW
CENTAUR R/B 3.1 04:39:18 10° NW 04:47:40 83° WSW 04:48:39 73° S
Cosmos 2082 Rocket 4.2 04:45:24 10° N 04:47:12 17° NNE 04:47:12 17° NNE
ATLAS 3B R/B 3.6 04:49:27 10° NNW 04:54:32 39° NNE 04:54:32 39° NNE
USA 234 4.4 05:39:39 36° NNW 05:40:16 37° NNW 05:46:07 10° W
USA 267 4.1 10:05:33 10° NE 10:09:48 44° NE 10:09:48 44° NE
Cosmos 1697 Rocket 4.4 10:30:20 27° NNE 10:30:20 27° NNE 10:32:50 10° NNE
Cosmos 1980 Rocket 3.4 10:34:33 38° NE 10:34:33 38° NE 10:38:02 10° NNE
Cosmos 2263 Rocket 4.4 10:37:50 10° N 10:42:15 23° NE 10:46:40 10° ESE
SL-16 R/B 4.1 10:47:26 21° SE 10:49:04 24° ESE 10:53:30 10° NE
ADEOS II 4.0 10:48:13 10° N 10:50:02 21° N 10:50:02 21° N
ARIANE 5 R/B 3.8 10:50:08 10° NNE 10:53:01 35° NNE 10:53:01 35° NNE
Cosmos 1934 Rocket 4.3 10:50:14 10° N 10:56:14 60° E 10:57:12 54° ESE
ASTEX 1 4.5 10:55:25 10° NNE 10:58:46 41° NNE 10:58:46 41° NNE
IDEFIX/ARIANE 42P 3.2 10:56:45 10° NNE 11:00:51 54° NNE 11:00:51 54° NNE
SJ 16-02 3.5 11:02:20 10° N 11:06:00 25° ENE 11:09:39 10° ESE
H-2A R/B 3.8 11:08:53 10° SE 11:12:43 31° ENE 11:16:39 10° N
Meteor 1-14 Rocket 4.2 11:08:57 10° N 11:14:34 78° E 11:14:41 77° E
Cosmos 1238 Rocket 3.9 11:09:26 10° N 11:16:01 80° E 11:17:48 48° SSE
X-37B 3.5 11:23:27 17° NE 11:23:27 17° NE 11:24:37 10° ENE
Cosmos 1605 Rocket 4.4 11:17:19 10° N 11:23:42 65° E 11:30:02 10° SSE
Lacrosse 5 3.6 11:24:36 22° NNW 11:24:36 22° NNW 11:27:59 10° NNE
Cosmos 1535 Rocket 4.4 11:18:46 10° N 11:25:11 83° W 11:27:41 40° S
BREEZE M DEB (TANK) 4.4 11:11:35 10° WNW 11:28:19 62° NNE 11:32:53 10° ESE
Cosmos 468 Rocket 4.4 11:30:16 40° SSE 11:31:56 60° ESE 11:37:08 10° NNE
CZ-4C R/B 4.3 11:54:38 31° NNW 11:54:38 31° NNW 11:56:36 10° NNW
Cosmos 921 Rocket 3.8 11:56:56 34° NW 11:56:56 34° NW 11:59:56 10° N
Cosmos 1812 3.3 11:56:57 42° NNW 11:56:57 42° NNW 11:59:48 10° N
